User: anonymous   Login
Location: Diebersbach
(48.5163°N, 8.0558°E)
Time: 20:14:04
(UTC+00:00)
Language:

FENGYUN 1C DEB - Orbit

View from above orbital plane
View from above orbital plane
View from above satellite
View from above satellite

Ground track
Ground track

The orbit data is extracted from the following two-line orbital elements,

1 32098U 99025CQQ 22013.33078866  .00000182  00000-0  93712-4 0  9993
2 32098  98.6045  34.2138 0203986 281.5872  76.2469 14.16388282439708
Epoch (UTC): 13 January 2022 07:56:20
Eccentricity: 0.0203986
inclination: 98.6045°
perigee height: 690 km
apogee height: 985 km
right ascension of ascending node: 34.2138°
argument of perigee: 281.5872°
revolutions per day: 14.16388282
mean anomaly at epoch: 76.2469°
orbit number at epoch: 43970

The dashed part of the orbit path shows where the satellite is in the earth's shadow,  

DLR